Yankton, SD

2:51 AM CDT on May 21, 2018 (GMT -0500)
Gurney Municipal

Weather History for KYKN - December, 2012

Change the Weather History Date:

Tuesday, December 4, 2012

  Actual Average Record
Temperature  
Mean Temperature 40 °F -  
Max Temperature 50 °F 34 °F 58 °F (1956)
Min Temperature 28 °F 16 °F -3 °F (1978)
Degree Days  
Heating Degree Days 25    
Moisture  
Dew Point 21 °F    
Average Humidity 49    
Maximum Humidity 74    
Minimum Humidity 32    
Precipitation  
Precipitation 0.00 in - - ()
Sea Level Pressure  
Sea Level Pressure 30.20 in    
Wind  
Wind Speed 6 mph (NW)    
Max Wind Speed 15 mph    
Max Gust Speed 16 mph    
Visibility 10 miles    
Events      
Averages and records for this station are not official NWS values.
T = Trace of Precipitation, MM = Missing Value Source: NWS Daily Summary

Daily Weather History Graph

Daily Weather History Graph

Search for Another Location

Airport or City:

Astronomy

Dec. 04, 2012 Rise Set
Actual Time 7:44 AM CST 4:55 PM CST
Civil Twilight 7:12 AM CST 5:27 PM CST
Nautical Twilight 6:37 AM CST 6:02 PM CST
Astronomical Twilight 6:02 AM CST 6:36 PM CST
Moon 10:50 PM CST (12/4) 11:34 AM CST (12/4)
Length of Visible Light 10h 14m
Length of Day
9h 10m
Waning Gibbous, 69% of the Moon is Illuminated
Dec 4
Waning Gibbous
Dec 6
Last Quarter
Dec 13
New
Dec 19
First Quarter
Dec 28
Full

Hourly Weather History & Observations

Time (CST) Temp. Windchill Dew Point Humidity Pressure Visibility Wind Dir Wind Speed Gust Speed Precip Events Conditions
12:15 AM 37.4 °F 30.8 °F 24.8 °F 60% 30.07 in 10.0 mi SW 9.2 mph - N/A   Clear
12:35 AM 37.4 °F 31.4 °F 24.8 °F 60% 30.07 in 10.0 mi SSW 8.1 mph - N/A   Clear
12:55 AM 37.4 °F 31.4 °F 24.8 °F 60% 30.07 in 10.0 mi SW 8.1 mph - N/A   Clear
1:15 AM 35.6 °F - 21.2 °F 56% 30.07 in 10.0 mi Calm Calm - N/A   Clear
1:35 AM 37.4 °F 33.8 °F 23.0 °F 56% 30.07 in 10.0 mi South 4.6 mph - N/A   Clear
1:55 AM 37.4 °F 33.8 °F 21.2 °F 52% 30.07 in 10.0 mi WSW 4.6 mph - N/A   Clear
2:15 AM 35.6 °F - 19.4 °F 52% 30.09 in 10.0 mi Calm Calm - N/A   Clear
2:55 AM 37.4 °F 34.9 °F 19.4 °F 48% 30.10 in 10.0 mi SSW 3.5 mph - N/A   Clear
3:15 AM 37.4 °F 32.1 °F 19.4 °F 48% 30.10 in 10.0 mi SW 6.9 mph - N/A   Clear
3:35 AM 35.6 °F 30.7 °F 19.4 °F 52% 30.10 in 10.0 mi SW 5.8 mph - N/A   Clear
3:55 AM 37.4 °F 33.8 °F 19.4 °F 48% 30.10 in 10.0 mi WSW 4.6 mph - N/A   Clear
4:15 AM 37.4 °F 32.8 °F 17.6 °F 45% 30.10 in 10.0 mi WSW 5.8 mph - N/A   Clear
4:35 AM 33.8 °F - 17.6 °F 52% 30.11 in 10.0 mi Calm Calm - N/A   Clear
4:55 AM 35.6 °F - 19.4 °F 52% 30.12 in 10.0 mi Calm Calm - N/A   Clear
5:15 AM 35.6 °F - 19.4 °F 52% 30.12 in 10.0 mi Calm Calm - N/A   Clear
5:35 AM 33.8 °F 28.6 °F 17.6 °F 52% 30.12 in 10.0 mi SSW 5.8 mph - N/A   Clear
5:55 AM 33.8 °F - 19.4 °F 56% 30.13 in 10.0 mi Calm Calm - N/A   Clear
6:15 AM 33.8 °F 30.8 °F 19.4 °F 56% 30.13 in 10.0 mi South 3.5 mph - N/A   Clear
6:35 AM 32.0 °F - 19.4 °F 60% 30.14 in 10.0 mi Calm Calm - N/A   Clear
6:55 AM 33.8 °F 28.6 °F 21.2 °F 60% 30.16 in 10.0 mi NE 5.8 mph - N/A   Clear
7:15 AM 30.2 °F 26.7 °F 19.4 °F 64% 30.17 in 10.0 mi NNW 3.5 mph - N/A   Clear
7:35 AM 30.2 °F 23.4 °F 19.4 °F 64% 30.18 in 10.0 mi WNW 6.9 mph - N/A   Clear
7:55 AM 33.8 °F 26.4 °F 17.6 °F 52% 30.19 in 10.0 mi West 9.2 mph - N/A   Clear
8:15 AM 33.8 °F 26.4 °F 19.4 °F 56% 30.20 in 10.0 mi West 9.2 mph - N/A   Clear
8:35 AM 35.6 °F 28.6 °F 21.2 °F 56% 30.20 in 10.0 mi WSW 9.2 mph - N/A   Clear
8:55 AM 37.4 °F 33.8 °F 21.2 °F 52% 30.22 in 10.0 mi SW 4.6 mph - N/A   Clear
9:15 AM 39.2 °F 35.0 °F 21.2 °F 49% 30.22 in 10.0 mi WSW 5.8 mph - N/A   Clear
9:35 AM 42.8 °F 37.5 °F 23.0 °F 46% 30.23 in 10.0 mi West 9.2 mph - N/A   Clear
9:55 AM 42.8 °F 36.6 °F 21.2 °F 42% 30.23 in 10.0 mi West 11.5 mph - N/A   Clear
10:15 AM 42.8 °F 37.0 °F 21.2 °F 42% 30.24 in 10.0 mi WNW 10.4 mph - N/A   Clear
10:35 AM 44.6 °F 38.4 °F 21.2 °F 39% 30.24 in 10.0 mi WNW 12.7 mph - N/A   Clear
10:55 AM 44.6 °F 37.8 °F 21.2 °F 39% 30.24 in 10.0 mi WNW 15.0 mph - N/A   Clear
11:15 AM 46.4 °F 40.7 °F 21.2 °F 37% 30.24 in 10.0 mi WNW 12.7 mph - N/A   Clear
11:35 AM 46.4 °F 41.9 °F 21.2 °F 37% 30.25 in 10.0 mi WNW 9.2 mph - N/A   Clear
11:55 AM 46.4 °F 41.1 °F 23.0 °F 40% 30.25 in 10.0 mi West 11.5 mph - N/A   Clear
12:15 PM 48.2 °F - 24.8 °F 40% 30.25 in 10.0 mi WNW 9.2 mph - N/A   Clear
12:35 PM 50.0 °F - 24.8 °F 37% 30.24 in 10.0 mi NNW 8.1 mph - N/A   Clear
12:55 PM 48.2 °F - 21.2 °F 34% 30.24 in 10.0 mi NW 10.4 mph - N/A   Clear
1:15 PM 50.0 °F - 21.2 °F 32% 30.24 in 10.0 mi NNW 10.4 mph - N/A   Clear
1:35 PM 50.0 °F - 23.0 °F 35% 30.24 in 10.0 mi NW 11.5 mph 16.1 mph N/A   Clear
1:55 PM 50.0 °F - 21.2 °F 32% 30.23 in 10.0 mi NW 9.2 mph - N/A   Clear
2:15 PM 50.0 °F - 21.2 °F 32% 30.23 in 10.0 mi NNW 8.1 mph - N/A   Clear
2:35 PM 50.0 °F - 21.2 °F 32% 30.23 in 10.0 mi NW 6.9 mph - N/A   Clear
2:55 PM 50.0 °F - 21.2 °F 32% 30.22 in 10.0 mi NNW 8.1 mph - N/A   Clear
3:15 PM 48.2 °F - 21.2 °F 34% 30.23 in 10.0 mi NNW 9.2 mph - N/A   Clear
3:35 PM 48.2 °F - 21.2 °F 34% 30.23 in 10.0 mi NNW 9.2 mph - N/A   Clear
3:55 PM 48.2 °F - 21.2 °F 34% 30.23 in 10.0 mi NNW 6.9 mph - N/A   Clear
4:15 PM 48.2 °F - 21.2 °F 34% 30.23 in 10.0 mi North 5.8 mph - N/A   Clear
4:35 PM 44.6 °F 41.4 °F 19.4 °F 37% 30.23 in 10.0 mi NNE 5.8 mph - N/A   Clear
4:55 PM 44.6 °F 42.2 °F 19.4 °F 37% 30.24 in 10.0 mi NNE 4.6 mph - N/A   Clear
5:15 PM 41.0 °F 39.0 °F 19.4 °F 42% 30.24 in 10.0 mi NNE 3.5 mph - N/A   Clear
5:35 PM 42.8 °F 39.3 °F 21.2 °F 42% 30.25 in 10.0 mi North 5.8 mph - N/A   Clear
5:55 PM 37.4 °F 34.9 °F 21.2 °F 52% 30.25 in 10.0 mi North 3.5 mph - N/A   Clear
6:15 PM 39.2 °F 35.9 °F 21.2 °F 49% 30.25 in 10.0 mi NE 4.6 mph - N/A   Clear
6:35 PM 39.2 °F 35.9 °F 21.2 °F 49% 30.25 in 10.0 mi NNE 4.6 mph - N/A   Clear
6:55 PM 39.2 °F 35.0 °F 21.2 °F 49% 30.25 in 10.0 mi NNE 5.8 mph - N/A   Clear
7:15 PM 39.2 °F 35.0 °F 21.2 °F 49% 30.25 in 10.0 mi NE 5.8 mph - N/A   Clear
7:35 PM 37.4 °F 32.8 °F 23.0 °F 56% 30.25 in 10.0 mi ENE 5.8 mph - N/A   Clear
7:55 PM 37.4 °F 34.9 °F 21.2 °F 52% 30.25 in 10.0 mi East 3.5 mph - N/A   Clear
8:15 PM 37.4 °F 33.8 °F 21.2 °F 52% 30.25 in 10.0 mi ESE 4.6 mph - N/A   Clear
8:35 PM 37.4 °F 34.9 °F 21.2 °F 52% 30.26 in 10.0 mi East 3.5 mph - N/A   Clear
8:55 PM 35.6 °F 30.7 °F 21.2 °F 56% 30.26 in 10.0 mi East 5.8 mph - N/A   Clear
9:15 PM 35.6 °F 31.7 °F 21.2 °F 56% 30.26 in 10.0 mi East 4.6 mph - N/A   Clear
9:35 PM 33.8 °F 27.7 °F 21.2 °F 60% 30.26 in 10.0 mi ENE 6.9 mph - N/A   Clear
9:55 PM 33.8 °F 27.7 °F 21.2 °F 60% 30.27 in 10.0 mi ENE 6.9 mph - N/A   Clear
10:15 PM 33.8 °F 27.7 °F 21.2 °F 60% 30.27 in 10.0 mi ENE 6.9 mph - N/A   Clear
10:35 PM 33.8 °F 27.7 °F 23.0 °F 65% 30.27 in 10.0 mi East 6.9 mph - N/A   Clear
10:55 PM 33.8 °F 26.4 °F 23.0 °F 65% 30.27 in 10.0 mi East 9.2 mph - N/A   Clear
11:15 PM 32.0 °F 22.5 °F 21.2 °F 64% 30.27 in 10.0 mi East 12.7 mph - N/A   Clear
11:35 PM 30.2 °F 21.3 °F 21.2 °F 69% 30.27 in 10.0 mi ENE 10.4 mph - N/A   Clear
11:55 PM 28.4 °F 20.4 °F 21.2 °F 74% 30.28 in 10.0 mi East 8.1 mph - N/A   Clear